Theta_e
336 340 347 352 365 370 359 349 345 344 343 343 346 350 353 351 351 356 345 346 346 346 350 352 350 352 351 349 352 352 353 353 351 351 351 352 345 351 351 352 352 352 352 352 352 351 351 351 346
342 347 351 360 369 365 355 346 345 343 341 346 350 347 347 348 344 346 346 346 346 347 350 350 347 351 352 350 352 352 353 353 352 352 349 352 347 350 352 352 352 348 349 348 347 348 350 351 336
342 347 359 364 365 369 353 347 344 342 342 352 351 345 345 347 344 344 346 347 345 350 350 344 342 346 351 352 351 352 352 353 351 351 349 349 353 352 352 353 352 351 352 352 351 350 349 350 339
348 354 358 368 367 361 348 345 342 349 349 348 345 347 343 341 344 346 347 347 350 350 346 341 350 351 349 352 352 351 352 353 351 348 350 352 352 352 350 350 349 351 352 351 352 351 348 349 341
349 358 368 369 365 358 345 343 348 351 352 351 345 348 346 341 343 347 347 349 350 349 345 352 349 349 351 349 350 351 352 352 350 346 349 353 351 342 350 351 353 352 352 352 351 349 348 339 340
360 362 370 370 360 361 345 345 351 353 353 350 347 347 346 342 347 347 346 347 348 347 348 350 351 352 351 351 351 350 352 352 349 351 348 353 350 346 350 352 352 352 351 350 350 347 346 334 338
358 366 366 363 364 363 346 345 354 351 349 348 346 348 345 345 346 343 346 346 346 346 348 349 351 352 352 352 352 350 351 349 348 351 348 352 348 347 351 350 351 351 351 351 349 340 334 327 335
355 363 364 361 363 364 354 352 352 351 349 346 344 347 348 347 342 345 345 347 348 348 343 349 350 350 350 351 350 350 344 348 350 348 350 352 353 351 348 350 351 351 350 348 343 343 338 331 338
353 367 368 363 361 361 360 357 354 350 351 346 346 344 344 344 344 345 347 347 348 350 348 350 350 349 348 350 350 350 346 346 343 343 343 348 347 349 352 346 349 346 342 342 341 340 333 337 338
359 365 364 358 358 359 359 358 355 353 351 349 347 345 343 343 340 342 347 347 348 348 347 349 349 349 347 346 348 347 348 345 347 341 348 346 349 350 349 347 343 341 341 341 342 344 344 345 344
356 364 359 358 357 357 360 354 351 351 352 350 351 346 345 342 341 342 342 343 346 348 349 349 345 347 346 345 349 344 346 346 341 337 342 349 345 343 344 340 342 346 347 347 347 349 347 350 350
358 355 357 357 355 358 359 355 354 351 352 347 347 345 344 342 341 342 342 347 348 346 347 347 347 345 345 346 347 349 348 343 333 339 345 346 347 342 342 345 348 350 344 341 344 344 343 343 341
356 357 357 354 355 355 354 355 356 353 350 347 347 345 342 342 341 341 343 346 346 346 346 347 345 345 347 346 345 343 347 349 348 339 337 346 344 345 343 344 346 345 346 346 346 344 343 343 343
355 357 356 354 354 354 355 352 352 351 346 347 347 345 342 341 341 342 342 343 345 345 349 347 346 347 348 344 347 345 345 347 347 347 345 346 346 344 344 345 345 346 344 347 342 345 345 344 341
355 360 356 354 354 355 350 350 353 346 346 347 346 344 342 341 342 342 343 342 345 345 350 346 344 349 345 346 345 345 346 346 348 346 350 347 347 349 347 345 345 344 340 344 342 345 342 343 343
356 359 365 356 355 354 353 358 353 346 347 347 345 343 342 342 341 342 343 342 344 345 347 347 346 345 344 344 347 348 346 345 346 349 348 350 348 349 347 345 347 343 343 347 346 346 346 342 345
358 364 365 362 354 356 355 358 350 350 346 346 345 343 341 344 343 342 341 344 347 346 348 348 344 344 347 351 347 346 345 345 345 348 349 350 349 349 349 351 344 341 347 350 350 346 346 343 343
357 360 361 364 359 358 358 359 347 350 351 345 345 342 344 345 344 343 342 347 347 346 347 346 345 347 344 350 350 348 347 347 346 348 351 351 350 351 351 349 345 351 350 342 349 343 343 348 344
346 354 361 357 356 355 353 353 353 352 352 350 346 344 348 346 343 342 345 347 346 346 348 347 347 349 348 349 345 347 348 347 350 352 351 351 351 350 354 352 346 333 346 351 352 343 350 347 343
346 353 360 359 355 353 352 355 353 351 353 352 347 347 347 346 346 343 345 346 346 348 347 348 350 350 348 346 348 349 348 347 350 351 350 352 350 349 353 350 351 346 349 350 349 351 351 350 347
348 350 358 360 356 352 351 355 351 347 350 351 351 347 347 349 347 346 345 345 349 350 349 351 350 347 351 352 349 346 350 348 350 350 351 351 352 352 354 352 349 349 351 350 352 354 353 354 346
347 355 355 359 357 361 352 360 354 349 351 352 353 349 349 347 347 346 344 345 347 352 348 350 352 350 351 353 351 348 349 351 349 351 350 351 351 351 352 353 353 338 338 349 353 350 350 356 355
343 346 357 355 358 356 357 359 358 349 351 353 352 349 349 349 345 348 344 346 345 346 352 350 350 351 351 354 351 350 349 347 349 351 351 353 351 351 351 352 353 352 351 350 356 352 353 355 350
339 349 347 350 356 364 356 356 356 356 351 349 351 350 349 345 347 347 347 343 348 346 350 351 352 350 351 352 351 352 349 349 352 350 351 352 352 352 350 351 352 346 351 354 353 352 354 354 345
338 343 359 362 365 363 354 357 354 353 351 347 348 349 348 346 347 346 348 350 349 349 351 353 355 352 352 353 353 352 349 347 351 353 352 352 351 352 350 352 352 354 352 354 354 355 354 353 354
335 337 350 357 360 359 354 357 357 348 347 347 346 346 349 348 349 349 345 348 347 349 350 351 356 355 352 353 352 352 352 352 352 351 351 347 351 351 352 351 353 352 352 354 355 354 351 353 352
334 337 338 349 354 356 355 355 348 349 347 346 348 349 350 350 349 347 351 349 348 347 348 356 356 354 354 353 352 351 353 351 351 350 348 343 353 351 354 352 353 351 351 354 354 353 352 353 356
331 332 336 347 356 354 359 359 363 353 351 351 350 351 350 348 348 348 348 349 341 344 347 354 355 356 354 352 353 351 353 352 353 353 352 353 351 344 335 352 350 352 352 350 353 352 353 352 352
327 329 331 333 343 354 354 355 353 354 348 355 352 351 349 345 346 350 348 349 347 348 349 355 354 354 353 353 351 351 350 350 352 352 353 353 350 343 352 354 353 353 353 350 353 353 350 353 353
327 327 327 330 337 337 342 342 344 350 352 352 354 351 352 349 350 352 350 348 347 351 352 354 353 352 349 350 348 352 348 350 351 350 352 352 352 355 352 354 353 355 354 353 354 352 353 352 352
Wind_Speed
9 10 10 7 2 6 6 16 17 16 15 19 23 20 14 5 10 15 26 26 24 21 18 15 15 15 14 14 15 15 15 16 16 18 18 19 21 20 19 20 20 19 19 20 18 19 18 17 16
11 14 4 3 2 4 10 16 16 16 14 22 23 21 22 24 25 25 23 27 26 21 18 15 14 14 14 14 14 14 14 15 15 16 17 17 20 18 19 19 19 20 19 18 17 17 17 16 17
13 15 3 1 3 2 11 14 16 18 13 21 19 17 15 22 19 22 26 25 26 26 20 16 14 13 13 13 14 12 14 15 14 15 17 17 18 18 18 18 17 17 16 16 16 17 16 15 18
6 4 3 3 9 4 13 18 18 18 16 20 22 17 19 27 28 32 29 26 23 25 18 17 15 13 13 14 13 13 13 14 14 16 18 17 19 18 17 16 15 15 15 15 16 15 14 13 15
6 3 2 3 3 5 17 17 15 16 15 11 24 21 19 27 28 27 27 27 23 22 18 16 14 13 13 12 12 12 14 14 15 16 18 18 18 19 18 15 15 16 15 15 15 14 13 14 14
2 3 2 7 3 8 17 14 15 19 20 13 22 21 22 24 30 21 23 19 24 26 18 16 15 14 14 13 13 14 14 15 15 16 17 19 20 19 18 17 17 16 15 14 13 13 13 15 14
3 3 1 9 4 9 14 12 14 15 20 19 21 23 20 21 25 19 20 23 24 25 19 12 13 15 15 15 15 15 14 17 17 17 17 18 19 18 19 17 17 15 14 13 13 14 14 16 16
4 2 3 6 8 6 3 16 20 14 13 24 22 14 18 27 24 20 32 24 24 24 12 14 14 14 15 14 14 15 16 17 17 17 19 19 19 16 16 17 15 14 12 11 12 12 15 18 18
4 3 2 7 12 4 17 14 6 8 9 14 18 21 24 27 27 31 24 23 20 19 21 16 17 17 16 13 14 13 13 16 15 13 19 23 22 17 13 13 13 12 12 12 12 12 14 16 13
6 3 6 2 10 11 13 18 16 13 13 15 18 21 24 24 23 23 27 20 23 20 15 15 15 18 17 15 17 14 9 11 13 11 13 10 23 17 13 12 12 12 11 9 7 6 8 8 8
2 5 1 6 10 7 11 9 9 15 3 23 23 21 20 23 20 15 19 24 24 19 14 17 18 15 15 15 21 19 15 15 5 11 6 16 20 15 10 13 11 9 9 3 5 6 5 7 12
5 4 5 6 7 5 13 10 9 13 5 20 22 19 19 18 17 18 16 27 24 22 17 15 19 13 11 13 14 20 17 17 15 20 5 11 17 16 11 10 9 6 11 13 8 5 6 5 14
6 6 12 8 7 2 4 8 14 3 4 20 21 18 19 17 18 19 19 30 28 19 17 20 17 10 3 16 16 18 18 15 13 18 6 7 16 10 10 9 5 9 7 4 6 11 7 7 7
7 9 15 8 6 3 8 8 5 16 15 20 21 19 18 18 18 19 17 19 24 19 25 19 15 9 7 16 16 15 14 14 18 10 10 5 11 9 9 5 5 9 10 5 7 6 10 10 9
14 15 12 9 2 4 7 4 7 12 17 20 19 18 17 15 20 17 17 16 22 22 23 16 18 10 10 12 11 14 10 12 16 12 7 11 11 2 8 5 4 5 9 5 5 2 5 14 11
9 6 6 6 7 3 7 10 1 12 17 20 20 18 16 16 19 17 18 18 17 22 16 18 17 15 13 12 6 13 14 14 12 14 10 5 6 5 4 3 11 9 2 4 8 7 13 14 12
8 6 9 6 4 3 3 7 10 8 17 19 19 18 16 13 18 18 19 19 22 20 16 19 20 17 13 10 12 13 13 12 10 10 10 7 4 3 1 8 6 7 5 10 9 2 9 3 11
9 10 7 9 5 3 4 9 12 10 12 19 17 18 17 15 16 18 21 24 23 18 15 21 19 19 14 8 8 11 9 10 10 9 10 8 3 2 3 4 5 4 6 3 2 6 4 9 5
6 4 9 9 12 5 3 4 13 6 9 10 16 15 17 19 19 20 24 28 23 20 15 18 24 15 16 11 12 10 9 9 12 9 10 7 5 1 3 4 3 6 10 7 9 1 8 4 4
16 13 14 11 15 3 4 14 14 7 7 7 9 17 17 11 3 19 23 25 27 21 19 16 18 17 14 11 8 10 10 11 10 10 7 3 6 3 4 1 10 13 6 4 6 9 11 8 5
24 9 13 8 10 3 9 3 8 9 9 15 13 18 17 22 16 17 19 24 31 29 25 18 17 18 13 6 13 13 9 13 12 8 9 8 4 5 2 3 8 3 1 2 3 8 9 10 1
8 17 12 11 8 3 13 3 1 14 10 11 16 9 9 3 20 17 18 22 28 31 28 24 17 15 11 7 8 18 14 9 10 8 12 12 8 5 3 0 4 1 4 1 9 5 6 13 18
12 12 18 15 8 9 12 4 6 10 11 17 22 12 19 25 14 10 21 18 22 25 29 26 22 17 14 7 5 9 6 5 10 9 14 9 9 8 7 7 5 6 4 4 4 5 7 15 16
18 21 16 13 5 4 12 5 8 16 31 24 15 14 10 10 18 18 28 26 23 25 29 28 26 20 14 12 9 8 4 5 5 12 11 12 11 12 11 8 5 5 3 4 4 5 7 8 18
7 13 4 3 7 4 15 9 6 23 18 22 19 19 17 15 12 17 11 17 19 16 21 30 28 24 17 13 10 8 10 15 8 7 6 2 13 14 13 13 11 8 8 5 2 3 2 4 5
11 12 5 3 3 1 4 2 5 23 20 25 22 19 17 21 14 15 19 17 23 24 19 30 28 23 21 16 14 12 13 12 10 8 4 8 9 11 12 11 10 10 8 5 3 5 5 5 2
13 10 16 5 7 6 1 5 2 20 15 19 20 22 19 9 5 17 24 28 22 19 25 33 30 26 22 20 16 12 9 10 4 3 6 3 6 5 9 7 9 7 7 6 5 6 6 4 5
16 7 10 5 3 5 6 7 5 9 15 21 21 25 21 20 23 23 19 23 31 39 22 33 31 28 24 21 20 16 15 10 8 4 5 6 4 4 17 10 11 8 6 7 7 7 6 7 6
11 12 10 13 8 4 8 4 11 3 10 16 21 24 24 21 18 14 21 29 37 31 27 30 28 26 25 23 22 19 16 14 13 10 7 6 5 16 16 12 9 8 7 7 6 7 5 7 6
16 16 17 10 11 10 10 3 12 16 9 12 21 22 23 20 19 13 15 29 24 20 25 26 22 29 29 25 23 22 19 17 17 15 11 10 8 13 15 12 10 9 8 9 10 7 8 7 8
Wind_Direction
224 228 240 275 283 226 125 111 94 103 85 65 60 77 97 303 86 110 140 121 123 124 120 113 109 103 99 96 91 93 91 91 93 95 96 93 96 95 92 91 90 88 87 85 84 83 80 78 84
244 241 337 66 309 188 107 105 120 101 92 73 65 74 87 88 103 122 129 132 126 129 121 116 115 111 102 100 102 95 96 94 96 99 100 100 102 98 95 93 94 90 90 86 87 86 83 81 87
249 263 112 174 272 215 117 122 111 111 135 99 92 83 94 107 112 116 105 126 123 114 115 113 112 111 111 103 102 102 99 98 103 107 106 107 105 101 99 100 98 97 90 89 90 86 86 82 96
244 244 224 123 249 286 126 113 133 118 99 99 100 86 100 104 111 111 116 109 108 109 109 109 108 110 108 109 104 106 102 104 106 116 113 109 104 103 100 101 102 100 93 93 91 91 90 89 106
221 260 285 228 199 316 111 130 151 114 99 41 117 107 103 110 115 115 119 134 126 115 114 111 110 113 105 109 107 112 112 111 112 119 116 116 109 110 102 101 106 105 99 101 96 95 99 97 110
286 233 269 86 11 316 125 161 107 78 111 160 110 115 109 133 117 130 130 136 138 120 115 114 113 112 111 110 110 114 116 112 111 120 119 115 113 114 106 101 103 105 100 101 99 100 102 99 109
220 283 346 101 164 297 135 155 78 117 106 121 114 121 129 134 120 133 141 130 110 114 110 113 117 117 113 114 116 121 121 123 120 122 121 121 118 112 111 106 102 103 103 103 101 98 98 98 107
247 281 161 147 157 276 284 69 129 109 121 122 128 135 146 129 125 147 116 100 104 112 104 131 136 128 118 117 122 126 135 129 124 124 127 131 123 118 113 113 107 102 103 114 111 111 108 112 110
284 267 222 167 166 242 299 103 20 101 196 137 124 144 132 143 140 114 102 113 112 112 132 141 136 134 126 121 121 120 123 128 124 132 143 133 121 119 110 127 111 107 108 110 122 115 117 123 120
222 284 336 176 136 182 264 104 168 169 156 108 125 123 143 141 125 148 146 130 123 126 140 133 132 135 144 115 123 104 127 132 134 160 177 134 125 123 123 131 122 121 121 115 124 138 150 151 127
221 246 147 81 128 123 247 175 156 127 125 131 132 136 152 132 141 155 143 139 128 141 129 137 117 131 143 144 143 124 144 125 95 167 111 118 118 122 131 134 140 141 108 243 214 248 270 257 216
182 166 152 152 134 152 262 201 96 123 178 131 135 157 137 147 160 153 141 125 130 132 137 127 124 141 145 154 151 157 145 133 170 182 173 127 147 142 153 158 178 162 136 92 121 90 81 96 71
218 99 107 116 135 128 225 98 121 0 218 131 140 159 151 154 165 147 130 129 131 128 152 122 129 128 131 138 128 121 129 145 146 149 85 123 98 108 130 147 163 137 109 239 125 127 134 129 87
135 133 122 127 104 88 111 73 110 187 142 143 148 153 166 154 161 129 134 127 131 148 126 120 127 137 81 105 115 129 138 152 132 101 132 89 118 122 130 139 144 97 96 60 131 149 190 154 108
139 137 131 154 48 94 119 39 158 149 155 149 157 164 166 159 131 141 140 135 138 133 119 125 137 146 119 125 129 130 147 138 127 125 107 97 127 119 131 154 144 78 122 123 101 178 127 132 129
136 114 173 121 160 19 338 157 181 160 162 156 165 168 153 158 141 151 144 151 139 122 138 159 149 129 140 147 152 134 133 133 143 136 125 118 143 155 92 121 133 109 221 249 212 275 261 162 145
180 179 128 144 199 118 267 144 214 253 172 170 171 160 160 147 142 154 149 147 125 130 166 154 131 142 143 141 130 131 129 148 147 151 133 129 147 201 271 150 130 189 307 301 28 61 49 235 144
201 225 127 138 134 151 181 270 197 255 267 182 169 165 155 152 147 158 157 135 128 142 173 135 139 141 138 171 144 147 145 167 156 142 127 124 132 244 8 104 119 286 30 71 97 88 328 24 112
153 86 126 136 145 134 155 329 256 247 285 253 165 163 142 168 156 165 140 130 137 154 155 145 146 142 146 167 160 155 154 145 126 133 127 129 121 236 314 63 38 344 299 61 20 78 328 47 249
280 151 151 132 141 113 157 315 208 285 261 265 168 153 154 143 298 166 153 145 145 152 146 144 148 156 179 176 188 173 167 156 152 146 141 137 144 141 308 18 72 156 252 67 114 296 323 337 65
261 152 159 130 142 83 125 42 198 260 300 304 287 161 173 145 225 164 171 155 148 150 156 157 165 183 188 147 165 156 109 142 146 157 167 170 165 175 258 351 70 237 28 328 305 306 338 351 101
256 96 105 129 170 205 213 137 225 205 244 290 282 180 189 264 176 163 180 162 157 157 163 168 169 181 203 176 177 149 191 186 177 187 184 171 179 193 206 75 70 225 144 314 310 306 353 344 4
104 115 145 167 183 151 205 143 163 175 239 229 227 220 179 193 175 161 177 163 140 163 156 161 173 181 195 194 192 166 173 199 199 184 153 168 179 189 197 192 174 175 275 256 303 328 2 32 17
120 126 106 102 217 230 193 178 203 176 207 214 217 234 208 195 196 157 234 171 177 168 158 162 170 176 191 186 183 192 64 255 251 174 182 190 197 191 195 191 199 169 188 252 254 298 358 30 95
219 193 174 201 206 235 179 197 232 213 209 198 199 213 202 218 221 165 208 131 164 180 180 159 162 166 183 191 184 166 155 185 238 207 205 208 208 201 191 187 182 200 210 205 242 260 323 18 352
214 245 201 289 327 58 335 264 232 201 198 193 195 196 215 196 165 227 182 166 177 203 198 161 163 163 175 189 191 182 180 194 213 208 238 214 302 184 188 198 199 190 210 215 240 257 263 290 294
206 215 244 168 127 274 346 13 333 175 187 185 204 189 208 194 251 239 156 169 170 193 231 160 160 165 179 188 189 187 187 211 243 214 238 177 8 124 164 197 198 199 206 207 231 266 268 301 339
273 267 220 154 156 300 218 177 304 177 198 182 197 191 201 170 188 234 173 173 174 198 208 160 159 164 177 185 180 190 191 204 201 185 193 196 236 128 262 228 217 190 199 219 232 253 265 246 249
221 253 263 267 182 141 281 156 167 232 306 187 189 190 190 205 208 184 163 198 194 188 163 154 160 167 180 181 181 184 188 193 197 196 205 200 177 185 202 208 207 206 203 218 235 256 281 213 234
250 225 242 258 252 241 233 267 172 155 272 251 189 203 187 202 209 200 188 177 195 149 154 161 162 166 182 190 185 185 190 193 195 195 199 214 190 193 198 198 199 205 209 225 236 236 243 253 245